Погода в Мирошкином

Россия / Оренбургская область     51°59′24″N   52°03′07″E
темп.,
°C
ветер,
м/с
пор.,
м/с
влажн.,
%
обл.,
%
осадки,
мм/ч
давл.,
гПа
погр.,
м
10 апреля, сб
сб1023:00+6вюв51284100 0.0 1021149
02:00+5вюв4987100 0.0 1021115
05:00+5в4789100 0.0 102295
08:00+5вюв51187100 0.0 1023167
11:00+10вюв71276100 0.0 1023327
14:00+16юв81363100 0.0 1023674
17:00+19юв81451100 0.0 1022707
20:00+16юв7166065 0.0 1023310
11 апреля, вс
вс1123:00+14юв102166100 0.0 1024496
02:00+11юв9198190 0.0 1025455
05:00+10юв81884100 0.0 1027406
08:00+9юв8167910 0.0 1028358
11:00+13ююв8135677 0.0 1029493
14:00+18ююв8104455 0.0 1029769
17:00+19ююв793945 0.0 1029964
20:00+15юв48557 0.0 1030135
12 апреля, пн
пн1223:00+11вюв49705 0.0 1031124
02:00+9вюв48756 0.0 1032113
05:00+8вюв488727 0.0 1033117
08:00+8вюв488431 0.0 1033163
11:00+14юв455260 0.0 1034417
14:00+17вюв454264 0.0 1033813
17:00+18вюв5537100 0.0 1032918
20:00+14в344794 0.0 103249
13 апреля, вт
вт1323:00+10в4753100 0.0 103391
02:00+8вюв475780 0.0 1033103
05:00+6в476749 0.0 103492
08:00+6вюв49695 0.0 1034179
11:00+12вюв57495 0.0 1034450
14:00+16юв563750 0.0 1033781
17:00+18юв453324 0.0 1031969
20:00+14вюв454732 0.0 103153
14 апреля, ср
ср1423:00+10вюв45535 0.0 103153
02:00+8вюв46605 0.0 103177
05:00+7вюв45675 0.0 103162
08:00+7вюв35675 0.0 103096
11:00+13вюв45455 0.0 1029418
14:00+17вюв45330 0.0 1028865
17:00+18вюв44310 0.0 1026985
20:00+14в22460 0.0 102513